Cloud_Cover
86 5 0 2 5 5 5 4 0 0 0 0 0 0 0 0 0 0 0 0 0 0 0 0 0 0 0 0 0 0 0 0 0
8 5 4 5 5 5 50 4 4 0 0 0 0 0 0 0 0 0 0 0 0 0 0 0 0 0 0 0 0 0 0 0 0
5 0 4 5 4 2 2 14 5 5 0 0 0 0 0 0 0 0 0 0 0 0 0 0 0 0 0 0 0 0 0 0 0
2 5 4 5 5 5 11 92 5 3 10 2 0 0 0 0 0 0 0 0 0 0 0 0 0 0 0 0 0 0 0 0 0
0 19 77 0 3 90 63 47 48 5 5 24 0 0 0 0 0 0 0 0 0 0 0 0 0 0 0 0 0 0 0 0 0
47 2 0 0 0 4 5 5 8 81 16 4 1 0 0 0 0 0 0 0 0 0 0 0 0 0 0 0 0 0 0 0 0
0 6 3 0 0 0 1 5 5 4 5 5 4 0 0 0 0 0 0 0 0 0 0 0 0 0 0 0 0 0 0 0 0
0 0 5 5 1 0 0 0 2 0 1 1 3 5 0 0 0 0 0 0 0 0 0 0 0 0 0 0 0 0 0 0 0
0 0 0 2 19 35 4 0 0 5 3 5 84 5 0 0 0 0 0 0 0 0 0 0 0 0 0 0 0 0 0 0 0
0 0 0 0 0 2 6 5 5 6 2 58 98 91 23 38 6 0 0 0 0 0 0 0 0 0 0 0 0 0 0 0 5
0 0 0 0 0 0 0 1 0 0 0 2 33 100 100 97 50 26 3 0 0 0 0 0 0 0 0 0 0 0 0 0 5
0 0 0 0 0 0 0 0 0 0 0 0 2 99 90 100 100 84 4 0 1 0 0 0 0 0 0 0 0 3 0 1 4
0 0 1 1 0 0 0 0 0 0 0 0 0 0 64 98 100 79 11 59 69 95 0 5 0 11 92 81 20 46 3 2 1
5 0 0 2 0 2 0 0 0 0 0 0 0 5 13 66 100 40 100 76 99 100 51 100 81 52 79 100 81 78 53 4 11
46 62 3 0 3 0 0 0 0 0 0 18 21 75 58 100 100 67 83 10 64 89 99 100 100 95 94 96 85 100 100 100 100
45 45 44 33 55 46 53 3 0 0 15 51 100 82 91 61 100 19 100 63 100 82 100 97 88 74 100 100 100 100 100 100 100
24 25 92 94 17 5 26 34 3 10 6 5 17 68 100 60 47 46 3 16 78 100 91 100 100 100 100 100 100 100 100 100 100
31 8 7 6 5 0 0 0 0 0 0 0 0 1 2 4 0 0 0 53 86 100 100 100 100 100 100 100 100 100 100 100 100
5 5 5 1 9 14 31 0 0 0 0 0 0 98 45 11 10 72 100 100 100 100 100 100 100 100 100 100 100 100 100 100 100
100 97 87 66 66 55 91 96 32 11 0 0 0 46 100 100 100 100 100 100 100 100 100 100 100 100 100 100 100 100 100 100 100